Location: Aulnoy
(48.8410°N, 3.0967°E)
Time: 09:45:29
(UTC+00:00)

BlueWalker 3 - Pass Details

Date: 09 February 2023
Orbit: 497 x 515 km, 53.2° (Epoch: 23 March)

Event Time Altitude Azimuth Distance (km) Brightness Sun altitude
Rises 19:52:47 0° 290° (WNW) 2,610 6.8 -29.1°
Reaches altitude 10° 19:55:21 10° 274° (W) 1,725 5.6 -29.5°
Enters shadow 19:57:27 19° 243° (WSW) 1,244 4.4 -29.8°
